| time (UTC) | temp F | wind direction | speed knots | gust knots | rain 1hr in | rain 24hr in | rain mn in | humidity % | barometer mb |
| 20260509211645 | 63 | 139 | 0.9 | 2.6 | 0.00 | 0.20 | 0.20 | 74 | 958.2 |
| 20260509211139 | 63 | 253 | 0.9 | 3.5 | 0.00 | 0.20 | 0.20 | 74 | 958.2 |
| 20260509210855 | 63 | 166 | 0.9 | 3.5 | 0.00 | 0.20 | 0.20 | 75 | 958.3 |
| 20260509210128 | 62 | 229 | 0.0 | 1.7 | 0.00 | 0.20 | 0.20 | 79 | 958.3 |
| 20260509205621 | 62 | 234 | 0.0 | 1.7 | 0.00 | 0.20 | 0.20 | 79 | 958.3 |
| 20260509205114 | 61 | 199 | 0.0 | 1.7 | 0.00 | 0.20 | 0.20 | 79 | 958.3 |
| 20260509204609 | 61 | 141 | 0.0 | 1.7 | 0.00 | 0.20 | 0.20 | 80 | 958.3 |
| 20260509204103 | 60 | 219 | 0.0 | 1.7 | 0.00 | 0.20 | 0.20 | 80 | 958.3 |
| 20260509203558 | 60 | 140 | 0.0 | 0.9 | 0.00 | 0.20 | 0.20 | 79 | 958.5 |
| 20260509203051 | 59 | 231 | 0.0 | 0.9 | 0.00 | 0.20 | 0.20 | 78 | 958.6 |
| 20260509202545 | 59 | 85 | 0.0 | 0.9 | 0.00 | 0.20 | 0.20 | 79 | 958.7 |
| 20260509202039 | 59 | 11 | 0.0 | 0.9 | 0.00 | 0.20 | 0.20 | 78 | 958.7 |
| 20260509201756 | 59 | 19 | 0.0 | 0.9 | 0.00 | 0.20 | 0.20 | 78 | 958.8 |
| 20260509201026 | 58 | 19 | 0.0 | 0.9 | 0.00 | 0.20 | 0.20 | 78 | 958.9 |
| 20260509200520 | 58 | 24 | 0.0 | 0.9 | 0.00 | 0.20 | 0.20 | 77 | 958.9 |
| 20260509200015 | 58 | 16 | 0.0 | 0.9 | 0.00 | 0.20 | 0.20 | 78 | 958.9 |
| 20260509195509 | 58 | 16 | 0.0 | 0.9 | 0.00 | 0.20 | 0.20 | 78 | 958.8 |
| 20260509195004 | 58 | 19 | 0.0 | 1.7 | 0.00 | 0.20 | 0.20 | 78 | 958.7 |
| 20260509194726 | 58 | 19 | 0.0 | 1.7 | 0.00 | 0.20 | 0.20 | 78 | 958.5 |
| 20260509193952 | 58 | 126 | 0.0 | 0.9 | 0.00 | 0.20 | 0.20 | 79 | 958.6 |
| 20260509193445 | 58 | 133 | 0.0 | 0.0 | 0.01 | 0.20 | 0.20 | 79 | 958.6 |
| 20260509193201 | 58 | 133 | 0.0 | 0.0 | 0.01 | 0.20 | 0.20 | 79 | 958.7 |
| 20260509192433 | 58 | 133 | 0.0 | 0.0 | 0.01 | 0.20 | 0.20 | 79 | 958.8 |
| 20260509191928 | 59 | 133 | 0.0 | 0.0 | 0.01 | 0.20 | 0.20 | 80 | 958.8 |
| 20260509191424 | 59 | 133 | 0.0 | 0.9 | 0.01 | 0.20 | 0.20 | 80 | 958.8 |
| 20260509190920 | 59 | 133 | 0.0 | 0.9 | 0.01 | 0.20 | 0.20 | 80 | 959.0 |
| 20260509190641 | 59 | 133 | 0.0 | 0.9 | 0.02 | 0.20 | 0.20 | 80 | 959.0 |
| 20260509185917 | 59 | 133 | 0.0 | 0.9 | 0.02 | 0.20 | 0.20 | 80 | 959.2 |
| 20260509185417 | 59 | 226 | 0.0 | 0.0 | 0.02 | 0.20 | 0.20 | 79 | 959.2 |
| 20260509184913 | 59 | 226 | 0.0 | 0.9 | 0.02 | 0.20 | 0.20 | 79 | 959.2 |
| 20260509184412 | 58 | 226 | 0.0 | 0.9 | 0.02 | 0.20 | 0.20 | 80 | 959.3 |
| 20260509183910 | 58 | 226 | 0.0 | 1.7 | 0.02 | 0.20 | 0.20 | 80 | 959.3 |
| 20260509183627 | 58 | 226 | 0.0 | 1.7 | 0.01 | 0.19 | 0.19 | 80 | 959.6 |
| 20260509182908 | 58 | 239 | 0.0 | 0.9 | 0.01 | 0.19 | 0.19 | 80 | 959.5 |
| 20260509182408 | 58 | 242 | 0.0 | 0.9 | 0.01 | 0.19 | 0.19 | 80 | 959.5 |
| 20260509181905 | 58 | 231 | 0.0 | 0.9 | 0.01 | 0.19 | 0.19 | 80 | 959.5 |
| 20260509181405 | 58 | 231 | 0.0 | 0.0 | 0.01 | 0.19 | 0.19 | 80 | 959.4 |
| 20260509180906 | 59 | 231 | 0.0 | 0.9 | 0.01 | 0.19 | 0.19 | 80 | 959.2 |
| 20260509180407 | 59 | 231 | 0.0 | 0.9 | 0.01 | 0.18 | 0.18 | 80 | 959.3 |
| 20260509180118 | 59 | 229 | 0.0 | 0.9 | 0.01 | 0.18 | 0.18 | 80 | 959.3 |
| 20260509175627 | 58 | 229 | 0.0 | 0.9 | 0.01 | 0.18 | 0.18 | 79 | 959.3 |
| 20260509174902 | 58 | 235 | 0.0 | 0.0 | 0.01 | 0.18 | 0.18 | 78 | 959.4 |
| 20260509174402 | 57 | 219 | 0.0 | 0.9 | 0.01 | 0.18 | 0.18 | 78 | 959.5 |
| 20260509173901 | 57 | 219 | 0.0 | 0.9 | 0.01 | 0.18 | 0.18 | 78 | 959.7 |
| 20260509173401 | 57 | 228 | 0.0 | 0.0 | 0.01 | 0.18 | 0.18 | 77 | 959.7 |
| 20260509173128 | 56 | 226 | 0.0 | 0.9 | 0.02 | 0.18 | 0.18 | 77 | 959.8 |
| 20260509172401 | 56 | 226 | 0.0 | 0.9 | 0.02 | 0.18 | 0.18 | 77 | 959.9 |
| 20260509171901 | 56 | 231 | 0.0 | 1.7 | 0.02 | 0.18 | 0.18 | 77 | 960.0 |
| 20260509171357 | 56 | 231 | 0.0 | 1.7 | 0.02 | 0.18 | 0.18 | 77 | 960.1 |
| 20260509170858 | 56 | 236 | 0.0 | 0.9 | 0.02 | 0.18 | 0.18 | 76 | 960.1 |
| 20260509170356 | 55 | 235 | 0.0 | 0.9 | 0.02 | 0.17 | 0.17 | 76 | 960.2 |
| 20260509165858 | 55 | 195 | 0.0 | 1.7 | 0.02 | 0.17 | 0.17 | 76 | 960.2 |
| 20260509165615 | 55 | 229 | 0.0 | 1.7 | 0.03 | 0.17 | 0.17 | 76 | 960.2 |
| 20260509164857 | 55 | 136 | 0.0 | 1.7 | 0.03 | 0.17 | 0.17 | 76 | 960.1 |
| 20260509164356 | 55 | 84 | 0.0 | 2.6 | 0.04 | 0.17 | 0.17 | 76 | 960.1 |
| 20260509164121 | 55 | 179 | 0.0 | 2.6 | 0.04 | 0.17 | 0.17 | 76 | 960.1 |
| 20260509163359 | 55 | 138 | 0.9 | 1.7 | 0.04 | 0.16 | 0.17 | 76 | 960.1 |
| 20260509163116 | 55 | 160 | 0.9 | 1.7 | 0.04 | 0.16 | 0.16 | 76 | 960.0 |
| 20260509162356 | 55 | 223 | 0.0 | 1.7 | 0.05 | 0.16 | 0.16 | 76 | 959.9 |
| 20260509161856 | 55 | 149 | 0.0 | 1.7 | 0.06 | 0.16 | 0.16 | 77 | 959.4 |
| 20260509161354 | 55 | 115 | 0.0 | 1.7 | 0.07 | 0.16 | 0.16 | 76 | 959.3 |
| 20260509160855 | 54 | 40 | 0.0 | 1.7 | 0.08 | 0.16 | 0.16 | 77 | 959.7 |
| 20260509160359 | 54 | 42 | 0.0 | 1.7 | 0.08 | 0.15 | 0.15 | 77 | 959.7 |
| 20260509155855 | 55 | 70 | 0.0 | 0.9 | 0.10 | 0.15 | 0.15 | 77 | 959.8 |
| 20260509155353 | 54 | 255 | 0.0 | 1.7 | 0.10 | 0.14 | 0.14 | 77 | 959.9 |
| 20260509154850 | 54 | 248 | 0.0 | 1.7 | 0.11 | 0.14 | 0.14 | 77 | 959.9 |
| 20260509154352 | 54 | 342 | 0.0 | 0.9 | 0.10 | 0.13 | 0.13 | 78 | 959.9 |
| 20260509153851 | 54 | 249 | 0.0 | 0.9 | 0.10 | 0.13 | 0.13 | 78 | 960.1 |
| 20260509153617 | 54 | 240 | 0.0 | 0.9 | 0.10 | 0.12 | 0.12 | 78 | 960.4 |
| 20260509152851 | 54 | 240 | 0.0 | 0.9 | 0.10 | 0.12 | 0.12 | 78 | 960.5 |
| 20260509152609 | 54 | 240 | 0.0 | 0.0 | 0.09 | 0.11 | 0.11 | 79 | 960.6 |
| 20260509151840 | 54 | 240 | 0.0 | 0.0 | 0.09 | 0.10 | 0.10 | 79 | 960.6 |
| 20260509151555 | 54 | 240 | 0.0 | 0.0 | 0.08 | 0.09 | 0.09 | 80 | 960.7 |
| 20260509150827 | 54 | 240 | 0.0 | 0.0 | 0.07 | 0.08 | 0.08 | 80 | 960.8 |
| 20260509150322 | 54 | 240 | 0.0 | 0.0 | 0.05 | 0.06 | 0.07 | 80 | 961.0 |
| 20260509145815 | 54 | 240 | 0.0 | 0.0 | 0.04 | 0.05 | 0.05 | 80 | 960.9 |
| 20260509145534 | 55 | 240 | 0.0 | 0.0 | 0.03 | 0.04 | 0.04 | 80 | 960.8 |
| 20260509144804 | 55 | 240 | 0.0 | 0.0 | 0.02 | 0.03 | 0.03 | 80 | 960.7 |
| 20260509143751 | 54 | 240 | 0.0 | 0.9 | 0.02 | 0.03 | 0.03 | 80 | 960.5 |
| 20260509143245 | 54 | 240 | 0.0 | 1.7 | 0.01 | 0.02 | 0.02 | 81 | 960.4 |
| 20260509142739 | 54 | 232 | 0.0 | 1.7 | 0.02 | 0.02 | 0.02 | 80 | 960.5 |
| 20260509142454 | 54 | 232 | 0.0 | 1.7 | 0.01 | 0.01 | 0.01 | 80 | 960.4 |
| 20260509141725 | 54 | 236 | 0.0 | 1.7 | 0.01 | 0.01 | 0.01 | 80 | 960.3 |
| 20260509141219 | 54 | 243 | 0.0 | 1.7 | 0.01 | 0.01 | 0.01 | 80 | 960.2 |
| 20260509140934 | 54 | 221 | 0.0 | 1.7 | 0.01 | 0.01 | 0.01 | 80 | 960.0 |
| 20260509140207 | 54 | 169 | 0.0 | 1.7 | 0.01 | 0.01 | 0.01 | 80 | 960.0 |
| 20260509135701 | 54 | 222 | 0.0 | 1.7 | 0.01 | 0.01 | 0.01 | 80 | 960.1 |
| 20260509135156 | 54 | 253 | 0.0 | 1.7 | 0.01 | 0.01 | 0.01 | 80 | 960.0 |
| 20260509134649 | 54 | 245 | 0.0 | 1.7 | 0.01 | 0.01 | 0.01 | 80 | 959.9 |
| 20260509134408 | 54 | 252 | 0.0 | 2.6 | 0.01 | 0.01 | 0.01 | 80 | 959.9 |
| 20260509133901 | 54 | 240 | 0.0 | 2.6 | 0.01 | 0.01 | 0.01 | 80 | 959.8 |
| 20260509133131 | 54 | 193 | 0.0 | 2.6 | 0.01 | 0.01 | 0.01 | 80 | 960.0 |
| 20260509132625 | 54 | 285 | 0.9 | 2.6 | 0.00 | 0.00 | 0.00 | 79 | 959.9 |
| 20260509132119 | 54 | 252 | 0.9 | 3.5 | 0.00 | 0.00 | 0.00 | 79 | 960.0 |
| 20260509131613 | 54 | 134 | 0.9 | 6.1 | 0.00 | 0.00 | 0.00 | 78 | 960.0 |
| 20260509131108 | 54 | 266 | 0.9 | 6.1 | 0.00 | 0.00 | 0.00 | 79 | 960.0 |
| 20260509130601 | 54 | 250 | 0.0 | 2.6 | 0.00 | 0.00 | 0.00 | 80 | 959.9 |
| 20260509130056 | 54 | 240 | 0.0 | 2.6 | 0.00 | 0.00 | 0.00 | 80 | 959.8 |
| 20260509125549 | 54 | 216 | 0.0 | 1.7 | 0.00 | 0.00 | 0.00 | 80 | 959.8 |
| 20260509125044 | 54 | 217 | 0.0 | 0.9 | 0.00 | 0.00 | 0.00 | 80 | 959.8 |
| 20260509124536 | 54 | 235 | 0.0 | 0.9 | 0.00 | 0.00 | 0.00 | 81 | 959.9 |
| 20260509124031 | 54 | 241 | 0.0 | 0.9 | 0.00 | 0.00 | 0.00 | 81 | 959.7 |
| 20260509123526 | 54 | 238 | 0.0 | 1.7 | 0.00 | 0.00 | 0.00 | 80 | 959.6 |
| 20260509123020 | 54 | 239 | 0.0 | 1.7 | 0.00 | 0.00 | 0.00 | 80 | 959.6 |
| 20260509122736 | 53 | 239 | 0.0 | 0.0 | 0.00 | 0.00 | 0.00 | 80 | 959.8 |
| 20260509122008 | 53 | 238 | 0.0 | 0.0 | 0.00 | 0.00 | 0.00 | 80 | 960.0 |
| 20260509121503 | 53 | 239 | 0.0 | 0.0 | 0.00 | 0.00 | 0.00 | 80 | 960.1 |
| 20260509120955 | 53 | 239 | 0.0 | 1.7 | 0.00 | 0.00 | 0.00 | 80 | 960.4 |
| 20260509120649 | 53 | 210 | 0.0 | 0.0 | 0.00 | 0.00 | 0.00 | 79 | 960.4 |
| 20260509120537 | 53 | 239 | 0.0 | 1.7 | 0.00 | 0.00 | 0.00 | 79 | 960.4 |
| 20260509115438 | 53 | 210 | 0.0 | 0.0 | 0.00 | 0.00 | 0.00 | 80 | 960.3 |
| 20260509114931 | 53 | 210 | 0.0 | 0.0 | 0.00 | 0.00 | 0.00 | 79 | 960.2 |
| 20260509114426 | 53 | 210 | 0.0 | 0.0 | 0.00 | 0.00 | 0.00 | 79 | 960.1 |
| 20260509114143 | 53 | 210 | 0.0 | 0.0 | 0.00 | 0.00 | 0.00 | 79 | 960.0 |
| 20260509113414 | 53 | 210 | 0.0 | 0.0 | 0.00 | 0.00 | 0.00 | 79 | 959.8 |
| 20260509113129 | 53 | 210 | 0.0 | 0.0 | 0.00 | 0.00 | 0.00 | 79 | 959.8 |
| 20260509112401 | 53 | 210 | 0.0 | 0.0 | 0.00 | 0.00 | 0.00 | 79 | 959.7 |
| 20260509111855 | 53 | 210 | 0.0 | 0.0 | 0.00 | 0.00 | 0.00 | 79 | 959.7 |
| 20260509111349 | 53 | 210 | 0.0 | 0.0 | 0.00 | 0.00 | 0.00 | 78 | 959.8 |
| 20260509110843 | 53 | 210 | 0.0 | 0.9 | 0.00 | 0.00 | 0.00 | 78 | 960.0 |
| 20260509110602 | 53 | 210 | 0.0 | 3.5 | 0.00 | 0.00 | 0.00 | 78 | 960.1 |
| 20260509105831 | 53 | 251 | 0.0 | 3.5 | 0.00 | 0.00 | 0.00 | 78 | 959.9 |
| 20260509105325 | 53 | 51 | 0.0 | 0.9 | 0.00 | 0.00 | 0.00 | 78 | 959.4 |
| 20260509104819 | 52 | 213 | 0.0 | 0.0 | 0.00 | 0.00 | 0.00 | 78 | 959.5 |
| 20260509104313 | 52 | 214 | 0.0 | 0.0 | 0.00 | 0.00 | 0.00 | 77 | 959.4 |
| 20260509103807 | 52 | 213 | 0.0 | 0.9 | 0.00 | 0.00 | 0.00 | 77 | 959.4 |
| 20260509103301 | 52 | 214 | 0.0 | 0.9 | 0.00 | 0.00 | 0.00 | 77 | 959.2 |
| 20260509103033 | 52 | 214 | 0.0 | 0.9 | 0.00 | 0.00 | 0.00 | 78 | 959.4 |
| 20260509102250 | 52 | 54 | 0.0 | 2.6 | 0.00 | 0.00 | 0.00 | 78 | 959.1 |
| 20260509101743 | 52 | 54 | 0.0 | 2.6 | 0.00 | 0.00 | 0.00 | 79 | 959.1 |
| 20260509101455 | 52 | 221 | 0.0 | 0.0 | 0.00 | 0.00 | 0.00 | 80 | 959.1 |
| 20260509100731 | 51 | 221 | 0.0 | 0.0 | 0.00 | 0.00 | 0.00 | 80 | 959.2 |
| 20260509100226 | 51 | 221 | 0.0 | 0.0 | 0.00 | 0.00 | 0.00 | 80 | 959.1 |
| 20260509095719 | 51 | 221 | 0.0 | 0.0 | 0.00 | 0.00 | 0.00 | 79 | 959.2 |
| 20260509095704 | 51 | 221 | 0.0 | 0.0 | 0.00 | 0.00 | 0.00 | 79 | 959.3 |
| 20260509094707 | 51 | 221 | 0.0 | 0.0 | 0.00 | 0.00 | 0.00 | 79 | 959.2 |
| 20260509094201 | 51 | 221 | 0.0 | 0.0 | 0.00 | 0.00 | 0.00 | 79 | 959.2 |
| 20260509093655 | 51 | 221 | 0.0 | 0.0 | 0.00 | 0.00 | 0.00 | 79 | 959.3 |
| 20260509093150 | 51 | 221 | 0.0 | 0.0 | 0.00 | 0.00 | 0.00 | 79 | 959.3 |
| 20260509092643 | 51 | 221 | 0.0 | 0.0 | 0.00 | 0.00 | 0.00 | 79 | 959.3 |
| 20260509092137 | 51 | 221 | 0.0 | 0.0 | 0.00 | 0.00 | 0.00 | 77 | 959.3 |
| 20260509091857 | 51 | 221 | 0.0 | 0.0 | 0.00 | 0.00 | 0.00 | 77 | 959.4 |
| 20260509091126 | 51 | 221 | 0.0 | 0.0 | 0.00 | 0.00 | 0.00 | 77 | 959.3 |
| 20260509090619 | 52 | 221 | 0.0 | 0.0 | 0.00 | 0.00 | 0.00 | 77 | 959.3 |
| 20260509090112 | 52 | 221 | 0.0 | 0.0 | 0.00 | 0.00 | 0.00 | 77 | 959.3 |
| 20260509085607 | 52 | 221 | 0.0 | 0.0 | 0.00 | 0.00 | 0.00 | 77 | 959.3 |
| 20260509085101 | 52 | 221 | 0.0 | 0.0 | 0.00 | 0.00 | 0.00 | 76 | 959.3 |
| 20260509084555 | 52 | 221 | 0.0 | 0.0 | 0.00 | 0.00 | 0.00 | 76 | 959.5 |
| 20260509084049 | 52 | 221 | 0.0 | 0.0 | 0.00 | 0.00 | 0.00 | 76 | 959.4 |
| 20260509083543 | 52 | 221 | 0.0 | 0.0 | 0.00 | 0.00 | 0.00 | 77 | 959.5 |
| 20260509083038 | 52 | 221 | 0.0 | 0.0 | 0.00 | 0.00 | 0.00 | 77 | 959.4 |
| 20260509082531 | 52 | 221 | 0.0 | 0.0 | 0.00 | 0.00 | 0.00 | 77 | 959.4 |
| 20260509082025 | 52 | 221 | 0.0 | 0.0 | 0.00 | 0.00 | 0.00 | 77 | 959.5 |
| 20260509081519 | 52 | 221 | 0.0 | 1.7 | 0.00 | 0.00 | 0.00 | 78 | 959.5 |
| 20260509081500 | 52 | 221 | 0.0 | 1.7 | 0.00 | 0.00 | 0.00 | 79 | 959.4 |
| 20260509080508 | 52 | 57 | 0.0 | 1.7 | 0.00 | 0.00 | 0.00 | 79 | 959.5 |
| 20260509080224 | 52 | 57 | 0.9 | 4.3 | 0.00 | 0.00 | 0.00 | 79 | 959.5 |
| 20260509075455 | 52 | 66 | 0.9 | 4.3 | 0.00 | 0.00 | 0.00 | 79 | 959.6 |
| 20260509074949 | 50 | 241 | 0.9 | 2.6 | 0.00 | 0.00 | 0.00 | 81 | 959.6 |
| 20260509074443 | 50 | 261 | 0.0 | 0.0 | 0.00 | 0.00 | 0.00 | 81 | 959.6 |
| 20260509073943 | 50 | 261 | 0.0 | 0.0 | 0.00 | 0.00 | 0.00 | 81 | 959.6 |
| 20260509073440 | 50 | 261 | 0.0 | 0.0 | 0.00 | 0.00 | 0.00 | 81 | 959.6 |
| 20260509072939 | 50 | 261 | 0.0 | 0.0 | 0.00 | 0.00 | 0.00 | 81 | 959.5 |
| 20260509072438 | 50 | 261 | 0.0 | 0.0 | 0.00 | 0.00 | 0.00 | 81 | 959.6 |
| 20260509071935 | 50 | 261 | 0.0 | 0.0 | 0.00 | 0.00 | 0.00 | 81 | 959.7 |
| 20260509071432 | 50 | 261 | 0.0 | 0.0 | 0.00 | 0.00 | 0.00 | 81 | 959.8 |
| 20260509070930 | 50 | 261 | 0.0 | 0.0 | 0.00 | 0.00 | 0.00 | 81 | 959.8 |
| 20260509070429 | 50 | 261 | 0.0 | 0.0 | 0.00 | 0.00 | 0.00 | 81 | 959.8 |
| 20260509065932 | 50 | 261 | 0.0 | 0.0 | 0.00 | 0.00 | 0.00 | 81 | 959.8 |
| 20260509065429 | 50 | 261 | 0.0 | 0.0 | 0.00 | 0.00 | 0.00 | 81 | 959.8 |
| 20260509064928 | 50 | 261 | 0.0 | 0.0 | 0.00 | 0.00 | 0.00 | 80 | 959.9 |
| 20260509064426 | 50 | 261 | 0.0 | 0.0 | 0.00 | 0.00 | 0.00 | 80 | 960.0 |
| 20260509063923 | 50 | 261 | 0.0 | 0.0 | 0.00 | 0.00 | 0.00 | 80 | 960.0 |
| 20260509063903 | 51 | 261 | 0.0 | 0.0 | 0.00 | 0.00 | 0.00 | 80 | 960.1 |
| 20260509062919 | 51 | 261 | 0.0 | 0.0 | 0.00 | 0.00 | 0.00 | 80 | 960.1 |
| 20260509062419 | 51 | 261 | 0.0 | 0.0 | 0.00 | 0.00 | 0.00 | 79 | 960.2 |
| 20260509061917 | 51 | 261 | 0.0 | 0.0 | 0.00 | 0.00 | 0.00 | 79 | 960.2 |
| 20260509061417 | 51 | 261 | 0.0 | 0.0 | 0.00 | 0.00 | 0.00 | 78 | 960.3 |
| 20260509060919 | 52 | 261 | 0.0 | 0.0 | 0.00 | 0.00 | 0.00 | 77 | 960.4 |
| 20260509060636 | 52 | 260 | 0.0 | 0.0 | 0.00 | 0.00 | 0.00 | 77 | 960.2 |
| 20260509055919 | 52 | 261 | 0.0 | 0.0 | 0.00 | 0.00 | 0.00 | 76 | 960.1 |
| 20260509055640 | 52 | 261 | 0.0 | 0.0 | 0.00 | 0.00 | 0.00 | 76 | 960.1 |
| 20260509054919 | 52 | 261 | 0.0 | 0.0 | 0.00 | 0.00 | 0.00 | 75 | 960.2 |
| 20260509054420 | 52 | 261 | 0.0 | 0.0 | 0.00 | 0.00 | 0.00 | 75 | 960.2 |
| 20260509054146 | 53 | 261 | 0.0 | 0.0 | 0.00 | 0.00 | 0.00 | 76 | 960.2 |
| 20260509053637 | 53 | 261 | 0.0 | 0.0 | 0.00 | 0.00 | 0.00 | 77 | 960.2 |
| 20260509052919 | 53 | 261 | 0.0 | 0.0 | 0.00 | 0.00 | 0.00 | 78 | 960.2 |
| 20260509052915 | 53 | 261 | 0.0 | 0.0 | 0.00 | 0.00 | 0.00 | 77 | 960.3 |
| 20260509052155 | 53 | 261 | 0.0 | 0.0 | 0.00 | 0.00 | 0.00 | 78 | 960.3 |
| 20260509051419 | 52 | 261 | 0.0 | 0.0 | 0.00 | 0.00 | 0.00 | 78 | 960.4 |
| 20260509050918 | 52 | 261 | 0.0 | 0.0 | 0.00 | 0.00 | 0.00 | 78 | 960.5 |
| 20260509050417 | 52 | 261 | 0.0 | 0.0 | 0.00 | 0.00 | 0.00 | 78 | 960.5 |
| 20260509045918 | 52 | 261 | 0.0 | 0.0 | 0.00 | 0.00 | 0.00 | 78 | 960.6 |
| 20260509045420 | 52 | 261 | 0.0 | 0.0 | 0.00 | 0.00 | 0.00 | 78 | 960.6 |
| 20260509044917 | 52 | 261 | 0.0 | 0.0 | 0.00 | 0.00 | 0.00 | 78 | 960.6 |
| 20260509044419 | 52 | 261 | 0.0 | 0.0 | 0.00 | 0.00 | 0.00 | 78 | 960.5 |
| 20260509043918 | 52 | 261 | 0.0 | 0.0 | 0.00 | 0.00 | 0.00 | 78 | 960.5 |
| 20260509043420 | 52 | 261 | 0.0 | 0.0 | 0.00 | 0.00 | 0.00 | 78 | 960.5 |
| 20260509042918 | 52 | 261 | 0.0 | 0.0 | 0.00 | 0.00 | 0.00 | 78 | 960.6 |
| 20260509042418 | 52 | 261 | 0.0 | 0.0 | 0.00 | 0.00 | 0.00 | 77 | 960.7 |
| 20260509042135 | 52 | 261 | 0.0 | 0.0 | 0.00 | 0.00 | 0.00 | 77 | 960.6 |
| 20260509041418 | 53 | 261 | 0.0 | 0.0 | 0.00 | 0.00 | 0.00 | 77 | 960.6 |
| 20260509040915 | 53 | 261 | 0.0 | 0.0 | 0.00 | 0.00 | 0.00 | 76 | 960.6 |
| 20260509040413 | 53 | 261 | 0.0 | 0.0 | 0.00 | 0.00 | 0.00 | 75 | 960.5 |
| 20260509035914 | 53 | 261 | 0.0 | 0.0 | 0.00 | 0.00 | 0.00 | 74 | 960.6 |
| 20260509035636 | 53 | 261 | 0.0 | 0.0 | 0.00 | 0.00 | 0.00 | 74 | 960.7 |
| 20260509035123 | 53 | 261 | 0.0 | 0.0 | 0.00 | 0.00 | 0.00 | 74 | 960.7 |
| 20260509034357 | 53 | 261 | 0.0 | 0.0 | 0.00 | 0.00 | 0.00 | 75 | 960.7 |
| 20260509033852 | 53 | 261 | 0.0 | 0.0 | 0.00 | 0.00 | 0.00 | 76 | 960.7 |
| 20260509033345 | 54 | 261 | 0.0 | 0.0 | 0.00 | 0.00 | 0.00 | 75 | 960.8 |
| 20260509033058 | 54 | 261 | 0.0 | 0.0 | 0.00 | 0.00 | 0.00 | 75 | 960.8 |
| 20260509032333 | 54 | 261 | 0.0 | 0.0 | 0.00 | 0.00 | 0.00 | 74 | 961.0 |
| 20260509031827 | 54 | 261 | 0.0 | 0.0 | 0.00 | 0.00 | 0.00 | 72 | 961.0 |
| 20260509031321 | 54 | 261 | 0.0 | 0.0 | 0.00 | 0.00 | 0.00 | 72 | 960.9 |
| 20260509030816 | 54 | 261 | 0.0 | 0.0 | 0.00 | 0.00 | 0.00 | 72 | 961.0 |
| 20260509030309 | 54 | 261 | 0.0 | 0.0 | 0.00 | 0.00 | 0.00 | 71 | 961.0 |
| 20260509025804 | 54 | 261 | 0.0 | 0.0 | 0.00 | 0.00 | 0.00 | 71 | 961.1 |
| 20260509025257 | 54 | 261 | 0.0 | 0.0 | 0.00 | 0.00 | 0.00 | 71 | 961.2 |
| 20260509024752 | 54 | 261 | 0.0 | 0.0 | 0.00 | 0.00 | 0.00 | 72 | 961.1 |
| 20260509024245 | 54 | 261 | 0.0 | 0.0 | 0.00 | 0.00 | 0.00 | 72 | 961.2 |
| 20260509023738 | 54 | 261 | 0.0 | 0.0 | 0.00 | 0.00 | 0.00 | 72 | 961.0 |
| 20260509023500 | 55 | 261 | 0.0 | 0.9 | 0.00 | 0.00 | 0.00 | 72 | 961.0 |
| 20260509022727 | 55 | 261 | 0.0 | 0.9 | 0.00 | 0.00 | 0.00 | 72 | 960.9 |
| 20260509022439 | 55 | 261 | 0.0 | 0.0 | 0.00 | 0.00 | 0.00 | 73 | 960.7 |
| 20260509021715 | 55 | 261 | 0.0 | 0.0 | 0.00 | 0.00 | 0.00 | 71 | 960.6 |
| 20260509021209 | 55 | 261 | 0.0 | 0.0 | 0.00 | 0.00 | 0.00 | 69 | 960.6 |
| 20260509020919 | 55 | 261 | 0.0 | 0.0 | 0.00 | 0.00 | 0.00 | 68 | 960.7 |
| 20260509020154 | 55 | 261 | 0.0 | 0.0 | 0.00 | 0.00 | 0.00 | 67 | 960.7 |
| 20260509015649 | 56 | 261 | 0.0 | 0.0 | 0.00 | 0.00 | 0.00 | 66 | 960.6 |
| 20260509015142 | 56 | 261 | 0.0 | 0.0 | 0.00 | 0.00 | 0.00 | 67 | 960.6 |
| 20260509014636 | 56 | 261 | 0.0 | 0.0 | 0.00 | 0.00 | 0.00 | 68 | 960.5 |
| 20260509014359 | 56 | 261 | 0.0 | 0.0 | 0.00 | 0.00 | 0.00 | 69 | 960.6 |
| 20260509013854 | 57 | 261 | 0.0 | 0.0 | 0.00 | 0.00 | 0.00 | 68 | 960.6 |
| 20260509013118 | 57 | 261 | 0.0 | 0.0 | 0.00 | 0.00 | 0.00 | 66 | 960.5 |
| 20260509012612 | 57 | 261 | 0.0 | 0.0 | 0.00 | 0.00 | 0.00 | 66 | 960.5 |
| 20260509012105 | 57 | 261 | 0.0 | 0.0 | 0.00 | 0.00 | 0.00 | 65 | 960.5 |
| 20260509011606 | 57 | 261 | 0.0 | 0.0 | 0.00 | 0.00 | 0.00 | 65 | 960.5 |
| 20260509011050 | 57 | 261 | 0.0 | 0.0 | 0.00 | 0.00 | 0.00 | 65 | 960.4 |
| 20260509010544 | 58 | 261 | 0.0 | 0.0 | 0.00 | 0.00 | 0.00 | 66 | 960.5 |
| 20260509010038 | 58 | 261 | 0.0 | 0.0 | 0.00 | 0.00 | 0.00 | 66 | 960.4 |
| 20260509005532 | 58 | 261 | 0.0 | 0.0 | 0.00 | 0.00 | 0.00 | 64 | 960.4 |
| 20260509005027 | 58 | 261 | 0.0 | 0.0 | 0.00 | 0.00 | 0.00 | 60 | 960.4 |
| 20260509004520 | 59 | 261 | 0.0 | 0.0 | 0.00 | 0.00 | 0.00 | 59 | 960.3 |
| 20260509004014 | 59 | 261 | 0.0 | 0.0 | 0.00 | 0.00 | 0.00 | 58 | 960.3 |
| 20260509003509 | 59 | 261 | 0.0 | 0.0 | 0.00 | 0.00 | 0.00 | 58 | 960.4 |
| 20260509003227 | 60 | 261 | 0.0 | 0.0 | 0.00 | 0.00 | 0.00 | 58 | 960.4 |
| 20260509002457 | 60 | 261 | 0.0 | 0.0 | 0.00 | 0.00 | 0.00 | 58 | 960.4 |
| 20260509001950 | 60 | 261 | 0.0 | 0.0 | 0.00 | 0.00 | 0.00 | 56 | 960.4 |
| 20260509001445 | 61 | 261 | 0.0 | 0.9 | 0.00 | 0.00 | 0.00 | 53 | 960.4 |
| 20260509000938 | 61 | 261 | 0.0 | 0.9 | 0.00 | 0.00 | 0.00 | 52 | 960.3 |
| 20260509000432 | 61 | 179 | 0.0 | 1.7 | 0.00 | 0.00 | 0.00 | 51 | 960.2 |
| 20260508235932 | 61 | 169 | 0.0 | 1.7 | 0.00 | 0.00 | 0.00 | 52 | 960.1 |
| 20260508235429 | 62 | 242 | 0.9 | 1.7 | 0.00 | 0.00 | 0.00 | 51 | 960.1 |
| 20260508234927 | 62 | 245 | 0.9 | 3.5 | 0.00 | 0.00 | 0.00 | 51 | 960.1 |
| 20260508234430 | 62 | 245 | 0.9 | 3.5 | 0.00 | 0.00 | 0.00 | 51 | 960.0 |
| 20260508233928 | 62 | 231 | 0.9 | 4.3 | 0.00 | 0.00 | 0.00 | 50 | 960.0 |
| 20260508233425 | 62 | 219 | 0.9 | 4.3 | 0.00 | 0.00 | 0.00 | 50 | 959.9 |
| 20260508232924 | 62 | 236 | 0.9 | 4.3 | 0.00 | 0.00 | 0.00 | 50 | 959.8 |
| 20260508232422 | 62 | 238 | 0.9 | 5.2 | 0.00 | 0.00 | 0.00 | 49 | 959.7 |
| 20260508231920 | 63 | 246 | 0.0 | 5.2 | 0.00 | 0.00 | 0.00 | 50 | 959.7 |
| 20260508231645 | 63 | 238 | 0.0 | 0.9 | 0.00 | 0.00 | 0.00 | 49 | 959.6 |
| 20260508230922 | 63 | 238 | 0.0 | 0.9 | 0.00 | 0.00 | 0.00 | 49 | 959.6 |
| 20260508230423 | 63 | 238 | 0.0 | 0.9 | 0.00 | 0.00 | 0.00 | 49 | 959.5 |
| 20260508225922 | 64 | 237 | 0.0 | 0.9 | 0.00 | 0.00 | 0.00 | 50 | 959.6 |
| 20260508225422 | 64 | 237 | 0.0 | 0.9 | 0.00 | 0.00 | 0.00 | 51 | 959.6 |
| 20260508224918 | 64 | 237 | 0.0 | 0.9 | 0.00 | 0.00 | 0.00 | 49 | 959.7 |
| 20260508224418 | 64 | 238 | 0.0 | 1.7 | 0.00 | 0.00 | 0.00 | 48 | 959.7 |
| 20260508223916 | 64 | 250 | 0.0 | 1.7 | 0.00 | 0.00 | 0.00 | 48 | 959.6 |
| 20260508223418 | 64 | 222 | 0.0 | 1.7 | 0.00 | 0.00 | 0.00 | 48 | 959.6 |
| 20260508223138 | 64 | 211 | 0.0 | 1.7 | 0.00 | 0.00 | 0.00 | 48 | 959.6 |
| 20260508222636 | 64 | 248 | 0.0 | 1.7 | 0.00 | 0.00 | 0.00 | 47 | 959.6 |
| 20260508221910 | 64 | 284 | 0.0 | 3.5 | 0.00 | 0.00 | 0.00 | 47 | 959.5 |
| 20260508221624 | 64 | 262 | 0.9 | 5.2 | 0.00 | 0.00 | 0.00 | 46 | 959.4 |
| 20260508220850 | 64 | 244 | 0.9 | 3.5 | 0.00 | 0.00 | 0.00 | 45 | 959.4 |
| 20260508220350 | 64 | 248 | 0.9 | 4.3 | 0.00 | 0.00 | 0.00 | 45 | 959.4 |
| 20260508215851 | 64 | 259 | 0.9 | 4.3 | 0.00 | 0.00 | 0.00 | 46 | 959.5 |
| 20260508215349 | 64 | 250 | 0.9 | 3.5 | 0.00 | 0.00 | 0.00 | 45 | 959.5 |
| 20260508214850 | 64 | 230 | 0.9 | 4.3 | 0.00 | 0.00 | 0.00 | 45 | 959.6 |
| 20260508214614 | 64 | 211 | 1.7 | 6.1 | 0.00 | 0.00 | 0.00 | 45 | 959.6 |
| 20260508213852 | 64 | 259 | 1.7 | 7.8 | 0.00 | 0.00 | 0.00 | 44 | 959.6 |
| 20260508213352 | 64 | 192 | 1.7 | 7.8 | 0.00 | 0.00 | 0.00 | 44 | 959.8 |
| 20260508212853 | 64 | 251 | 2.6 | 6.1 | 0.00 | 0.00 | 0.00 | 43 | 959.7 |
| 20260508212350 | 64 | 251 | 1.7 | 6.1 | 0.00 | 0.00 | 0.00 | 43 | 959.7 |
| 20260508211851 | 64 | 255 | 2.6 | 7.8 | 0.00 | 0.00 | 0.00 | 42 | 959.7 |